Showing default

LEMUR 2 BALTO, 63395

Orbit data source: Space-Track

LEMUR 2 BALTO, 63395 is a payload satellite owned by Spire (US) in SSO that was launched on Sat, 15 Mar 2025 UTC via an FALCON 9 launch vehicle from the Air Force Western Test Range (AFWTR). Payload-class satellites include a variety of spacecraft equipped with specific instruments for various scientific and technological missions. These include communications satellites like Starlink; space stations such as the ISS; scientific satellites like the Hubble; Earth observation satellites from companies like Planet Labs, Umbra, and HawkEye 360; GPS; miniature CubeSats for education and research; and military/defense satellites.

Loading next visibility...
Identifier
63395, 2025-052BH
Orbit
SSO
Country
Flag of USUS
Related business
Manufacturer
SPIREG/WINGB
Mission
Operational Commercial Com/MetRO
Bus & Motor
CUBESAT 6U, Unknown motor
Mass
10 kg wet, 10 kg dry
Launch date (UTC)
2025-03-15 (7 months ago)
Launch vehicle
FALCON 9
Launch site
Air Force Western Test Range (AFWTR)
Object type
Payload
Rocket body
Debris
Shape & HBR
Box, 0.2 m
Radar Cross Section
0.080 m², Small (<0.1 m²)

Expand to show TLE details & history
Last TLE update: 18 hours ago

TLE from 18 hours ago
0 LEMUR 2 BALTO
1 63395U 25052BH  25286.96671364  .00007653  00000-0  68705-3 0  9995
2 63395  97.7092 178.7539 0003940 101.8701 258.2962 14.95995608 31897
Epoch: 2025-10-13T23:12Z
TLE epoch observation values (Epoch: 2025-10-13T23:12:04.058Z)
Latitude
-0.00004°
Longitude
167.97509°
Altitude
582.89 km
Speed
7.569 km/s
True Right ascension
11h 55m 00s
True Declination
0° 00' 00"
Sunlit
Object was in daylight at epoch
Visualization orbit readout
Latitude
Unknown
Longitude
Unknown
Altitude
Unknown
Speed
Unknown
Apparent Right ascension
Unknown
Apparent Declination
Unknown
Sunlit
N/A
Visualization observer readout
Local Sidereal Time
11:57:55
Azimuth
Unknown
Elevation
Unknown
Doppler factor
Unknown
Orbital elements
Apogee altitude
579.035 km
Perigee altitude
573.555 km
Semi-major axis
6,954.432 km
Eccentricity
0.00039
Inclination
97.7092°
RAAN
178.7539°
Arg. of periapsis
101.8701°
True anomaly
258.25199°
Mean anomaly
258.2962°
Eccentric anomaly
258.2741°
Mean motion
3.7424 °/min
Orbital period
96.19 mins
BSTAR
0.00068705
Loading maneuver chart data...
Computing Atmospheric mass density...
Loading historical data...
Loading historical data...
Loading historical data...
Loading historical data...
Loading historical data...
Loading historical data...
Loading historical data...

Documentation

Showing up to 5 results
|